owner,sensor,date,latitude,longitude,vertical_datum,wind_speed,wind_to_direction,wind_speed_of_gust,qcFlag 
TCOON,ioos:station:TCOON:057:1,2009-05-21T20:00:00Z,28.4460,-96.3961,0.0,0.8,21.0,1.1,'11111222,11111222,11111222' 
TCOON,ioos:station:TCOON:057:1,2009-05-21T21:00:00Z,28.4460,-96.3961,0.0,5.7,123.0,6.2,'11111222,11111222,11111222' 
TCOON,ioos:station:TCOON:057:1,2009-05-21T22:00:00Z,28.4460,-96.3961,0.0,6.8,115.0,7.4,'11111222,11111222,11111222' 
TCOON,ioos:station:TCOON:057:1,2009-05-21T23:00:00Z,28.4460,-96.3961,0.0,6.3,126.0,7.0,'11111222,11111222,11111222' 
TCOON,ioos:station:TCOON:057:1,2009-05-22T00:00:00Z,28.4460,-96.3961,0.0,5.1,124.0,5.8,'11111222,11111222,11111222' 
TCOON,ioos:station:TCOON:057:1,2009-05-22T01:00:00Z,28.4460,-96.3961,0.0,5.6,134.0,6.2,'11111222,11111222,11111222' 
TCOON,ioos:station:TCOON:057:1,2009-05-22T02:00:00Z,28.4460,-96.3961,0.0,5.1,133.0,5.7,'11111222,11111222,11111222' 
TCOON,ioos:station:TCOON:057:1,2009-05-22T03:00:00Z,28.4460,-96.3961,0.0,4.9,121.0,5.6,'11111222,11111222,11111222' 
TCOON,ioos:station:TCOON:057:1,2009-05-22T04:00:00Z,28.4460,-96.3961,0.0,3.8,117.0,4.4,'11111222,11111222,11111222' 
TCOON,ioos:station:TCOON:057:1,2009-05-22T05:00:00Z,28.4460,-96.3961,0.0,3.7,114.0,4.2,'11111222,11111222,11111222' 
TCOON,ioos:station:TCOON:057:1,2009-05-22T06:00:00Z,28.4460,-96.3961,0.0,2.5,121.0,3.0,'11111222,11111222,11111222' 
TCOON,ioos:station:TCOON:057:1,2009-05-22T07:00:00Z,28.4460,-96.3961,0.0,2.3,136.0,2.7,'11111222,11111222,11111222' 
TCOON,ioos:station:TCOON:057:1,2009-05-22T08:00:00Z,28.4460,-96.3961,0.0,0.4,177.0,0.5,'11111222,11111222,11111222' 
TCOON,ioos:station:TCOON:057:1,2009-05-22T09:00:00Z,28.4460,-96.3961,0.0,1.3,102.0,1.5,'11111222,11111222,11111222' 
TCOON,ioos:station:TCOON:057:1,2009-05-22T10:00:00Z,28.4460,-96.3961,0.0,1.2,39.0,1.6,'11111222,11111222,11111222' 
TCOON,ioos:station:TCOON:057:1,2009-05-22T11:00:00Z,28.4460,-96.3961,0.0,1.9,295.0,2.1,'11111222,11111222,11111222' 
TCOON,ioos:station:TCOON:057:1,2009-05-22T12:00:00Z,28.4460,-96.3961,0.0,4.6,7.0,5.1,'11111222,11111222,11111222' 
TCOON,ioos:station:TCOON:057:1,2009-05-22T13:00:00Z,28.4460,-96.3961,0.0,4.3,9.0,4.7,'11111222,11111222,11111222' 
TCOON,ioos:station:TCOON:057:1,2009-05-22T14:00:00Z,28.4460,-96.3961,0.0,4.7,12.0,5.4,'11111222,11111222,11111222' 
TCOON,ioos:station:TCOON:057:1,2009-05-22T15:00:00Z,28.4460,-96.3961,0.0,4.2,357.0,4.9,'11111222,11111222,11111222' 
TCOON,ioos:station:TCOON:057:1,2009-05-22T16:00:00Z,28.4460,-96.3961,0.0,3.0,336.0,3.5,'11111222,11111222,11111222' 
TCOON,ioos:station:TCOON:057:1,2009-05-22T17:00:00Z,28.4460,-96.3961,0.0,1.8,334.0,2.3,'11111222,11111222,11111222' 
TCOON,ioos:station:TCOON:057:1,2009-05-22T18:00:00Z,28.4460,-96.3961,0.0,0.6,69.0,1.0,'11111222,11111222,11111222' 
TCOON,ioos:station:TCOON:057:1,2009-05-22T19:00:00Z,28.4460,-96.3961,0.0,1.8,74.0,2.2,'11111222,11111222,11111222' 
TCOON,ioos:station:TCOON:057:1,2009-05-22T20:00:00Z,28.4460,-96.3961,0.0,4.1,126.0,4.6,'11111222,11111222,11111222' 
TCOON,ioos:station:TCOON:057:1,2009-05-22T21:00:00Z,28.4460,-96.3961,0.0,5.4,106.0,6.6,'11111222,11111222,11111222' 
TCOON,ioos:station:TCOON:057:1,2009-05-22T22:00:00Z,28.4460,-96.3961,0.0,6.5,117.0,7.5,'11111222,11111222,11111222' 
TCOON,ioos:station:TCOON:057:1,2009-05-22T23:00:00Z,28.4460,-96.3961,0.0,7.0,100.0,7.8,'11111222,11111222,11111222' 
TCOON,ioos:station:TCOON:057:1,2009-05-23T00:00:00Z,28.4460,-96.3961,0.0,6.2,120.0,6.9,'11111222,11111222,11111222' 
TCOON,ioos:station:TCOON:057:1,2009-05-23T01:00:00Z,28.4460,-96.3961,0.0,6.0,110.0,6.9,'11111222,11111222,11111222' 
TCOON,ioos:station:TCOON:057:1,2009-05-23T02:00:00Z,28.4460,-96.3961,0.0,5.1,134.0,5.7,'11111222,11111222,11111222' 
TCOON,ioos:station:TCOON:057:1,2009-05-23T03:00:00Z,28.4460,-96.3961,0.0,4.4,129.0,5.4,'11111222,11111222,11111222' 
TCOON,ioos:station:TCOON:057:1,2009-05-23T04:00:00Z,28.4460,-96.3961,0.0,2.6,137.0,3.5,'11111222,11111222,11111222' 
TCOON,ioos:station:TCOON:057:1,2009-05-23T05:00:00Z,28.4460,-96.3961,0.0,1.6,147.0,2.0,'11111222,11111222,11111222' 
TCOON,ioos:station:TCOON:057:1,2009-05-23T06:00:00Z,28.4460,-96.3961,0.0,1.5,81.0,1.9,'11111222,11111222,11111222' 
TCOON,ioos:station:TCOON:057:1,2009-05-23T07:00:00Z,28.4460,-96.3961,0.0,2.1,85.0,2.7,'11111222,11111222,11111222' 
TCOON,ioos:station:TCOON:057:1,2009-05-23T08:00:00Z,28.4460,-96.3961,0.0,1.3,57.0,2.4,'11111222,11111222,11111222' 
TCOON,ioos:station:TCOON:057:1,2009-05-23T09:00:00Z,28.4460,-96.3961,0.0,1.5,290.0,1.8,'11111222,11111222,11111222' 
TCOON,ioos:station:TCOON:057:1,2009-05-23T10:00:00Z,28.4460,-96.3961,0.0,2.4,286.0,2.8,'11111222,11111222,11111222' 
TCOON,ioos:station:TCOON:057:1,2009-05-23T11:00:00Z,28.4460,-96.3961,0.0,3.1,292.0,3.9,'11111222,11111222,11111222' 
TCOON,ioos:station:TCOON:057:1,2009-05-23T12:00:00Z,28.4460,-96.3961,0.0,2.8,296.0,3.2,'11111222,11111222,11111222' 
TCOON,ioos:station:TCOON:057:1,2009-05-23T13:00:00Z,28.4460,-96.3961,0.0,2.3,301.0,2.6,'11111222,11111222,11111222' 
TCOON,ioos:station:TCOON:057:1,2009-05-23T14:00:00Z,28.4460,-96.3961,0.0,4.6,298.0,5.2,'11111222,11111222,11111222' 
TCOON,ioos:station:TCOON:057:1,2009-05-23T15:00:00Z,28.4460,-96.3961,0.0,4.8,335.0,5.7,'11111222,11111222,11111222' 
TCOON,ioos:station:TCOON:057:1,2009-05-23T16:00:00Z,28.4460,-96.3961,0.0,4.5,355.0,5.0,'11111222,11111222,11111222' 
TCOON,ioos:station:TCOON:057:1,2009-05-23T17:00:00Z,28.4460,-96.3961,0.0,3.9,7.0,4.8,'11111222,11111222,11111222' 
TCOON,ioos:station:TCOON:057:1,2009-05-23T18:00:00Z,28.4460,-96.3961,0.0,0.2,357.0,0.6,'11111222,11111222,11111222' 
TCOON,ioos:station:TCOON:057:1,2009-05-23T19:00:00Z,28.4460,-96.3961,0.0,2.5,71.0,4.5,'11111222,11111222,11111222' 
TCOON,ioos:station:TCOON:057:1,2009-05-23T20:00:00Z,28.4460,-96.3961,0.0,2.4,186.0,2.7,'11111222,11111222,11111222' 
TCOON,ioos:station:TCOON:057:1,2009-05-23T21:00:00Z,28.4460,-96.3961,0.0,3.3,201.0,3.9,'11111222,11111222,11111222' 
TCOON,ioos:station:TCOON:057:1,2009-05-23T22:00:00Z,28.4460,-96.3961,0.0,4.1,213.0,5.1,'11111222,11111222,11111222' 
TCOON,ioos:station:TCOON:057:1,2009-05-23T23:00:00Z,28.4460,-96.3961,0.0,4.8,185.0,5.4,'11111222,11111222,11111222' 
TCOON,ioos:station:TCOON:057:1,2009-05-24T00:00:00Z,28.4460,-96.3961,0.0,3.4,204.0,3.9,'11111222,11111222,11111222' 
TCOON,ioos:station:TCOON:057:1,2009-05-24T01:00:00Z,28.4460,-96.3961,0.0,2.9,213.0,3.8,'11111222,11111222,11111222' 
TCOON,ioos:station:TCOON:057:1,2009-05-24T02:00:00Z,28.4460,-96.3961,0.0,1.2,201.0,1.4,'11111222,11111222,11111222' 
TCOON,ioos:station:TCOON:057:1,2009-05-24T03:00:00Z,28.4460,-96.3961,0.0,1.5,315.0,1.8,'11111222,11111222,11111222' 
TCOON,ioos:station:TCOON:057:1,2009-05-24T04:00:00Z,28.4460,-96.3961,0.0,0.6,220.0,0.7,'11111222,11111222,11111222' 
TCOON,ioos:station:TCOON:057:1,2009-05-24T05:00:00Z,28.4460,-96.3961,0.0,2.1,218.0,2.2,'11111222,11111222,11111222' 
TCOON,ioos:station:TCOON:057:1,2009-05-24T06:00:00Z,28.4460,-96.3961,0.0,2.7,210.0,3.3,'11111222,11111222,11111222' 
TCOON,ioos:station:TCOON:057:1,2009-05-24T07:00:00Z,28.4460,-96.3961,0.0,2.1,256.0,2.9,'11111222,11111222,11111222' 
TCOON,ioos:station:TCOON:057:1,2009-05-24T08:00:00Z,28.4460,-96.3961,0.0,3.1,251.0,3.7,'11111222,11111222,11111222' 
TCOON,ioos:station:TCOON:057:1,2009-05-24T09:00:00Z,28.4460,-96.3961,0.0,4.2,250.0,5.2,'11111222,11111222,11111222' 
TCOON,ioos:station:TCOON:057:1,2009-05-24T10:00:00Z,28.4460,-96.3961,0.0,2.8,261.0,3.5,'11111222,11111222,11111222' 
TCOON,ioos:station:TCOON:057:1,2009-05-24T11:00:00Z,28.4460,-96.3961,0.0,4.2,279.0,5.2,'11111222,11111222,11111222' 
TCOON,ioos:station:TCOON:057:1,2009-05-24T12:00:00Z,28.4460,-96.3961,0.0,3.5,281.0,4.9,'11111222,11111222,11111222' 
TCOON,ioos:station:TCOON:057:1,2009-05-24T13:00:00Z,28.4460,-96.3961,0.0,3.0,276.0,3.9,'11111222,11111222,11111222' 
TCOON,ioos:station:TCOON:057:1,2009-05-24T14:00:00Z,28.4460,-96.3961,0.0,5.3,264.0,6.3,'11111222,11111222,11111222' 
TCOON,ioos:station:TCOON:057:1,2009-05-24T15:00:00Z,28.4460,-96.3961,0.0,5.3,252.0,7.0,'11111222,11111222,11111222' 
TCOON,ioos:station:TCOON:057:1,2009-05-24T16:00:00Z,28.4460,-96.3961,0.0,3.6,261.0,4.7,'11111222,11111222,11111222' 
TCOON,ioos:station:TCOON:057:1,2009-05-24T17:00:00Z,28.4460,-96.3961,0.0,4.2,1.0,4.7,'11111222,11111222,11111222' 
TCOON,ioos:station:TCOON:057:1,2009-05-24T18:00:00Z,28.4460,-96.3961,0.0,2.8,110.0,3.1,'11111222,11111222,11111222' 
TCOON,ioos:station:TCOON:057:1,2009-05-24T19:00:00Z,28.4460,-96.3961,0.0,4.8,155.0,5.5,'11111222,11111222,11111222' 
TCOON,ioos:station:TCOON:057:1,2009-05-24T20:00:00Z,28.4460,-96.3961,0.0,6.3,162.0,6.8,'11111222,11111222,11111222' 
TCOON,ioos:station:TCOON:057:1,2009-05-24T21:00:00Z,28.4460,-96.3961,0.0,7.8,164.0,8.8,'11111222,11111222,11111222' 
TCOON,ioos:station:TCOON:057:1,2009-05-24T22:00:00Z,28.4460,-96.3961,0.0,7.5,154.0,8.6,'11111222,11111222,11111222' 
TCOON,ioos:station:TCOON:057:1,2009-05-24T23:00:00Z,28.4460,-96.3961,0.0,10.2,18.0,11.9,'11111222,11111222,11111222' 
TCOON,ioos:station:TCOON:057:1,2009-05-25T00:00:00Z,28.4460,-96.3961,0.0,2.8,121.0,3.2,'11111222,11111222,11111222' 
TCOON,ioos:station:TCOON:057:1,2009-05-25T01:00:00Z,28.4460,-96.3961,0.0,5.9,179.0,6.5,'11111222,11111222,11111222' 
TCOON,ioos:station:TCOON:057:1,2009-05-25T02:00:00Z,28.4460,-96.3961,0.0,4.3,204.0,5.1,'11111222,11111222,11111222' 
TCOON,ioos:station:TCOON:057:1,2009-05-25T03:00:00Z,28.4460,-96.3961,0.0,2.1,216.0,2.7,'11111222,11111222,11111222' 
TCOON,ioos:station:TCOON:057:1,2009-05-25T04:00:00Z,28.4460,-96.3961,0.0,4.0,192.0,4.6,'11111222,11111222,11111222' 
TCOON,ioos:station:TCOON:057:1,2009-05-25T06:00:00Z,28.4460,-96.3961,0.0,2.7,210.0,3.1,'11111222,11111222,11111222' 
TCOON,ioos:station:TCOON:057:1,2009-05-25T07:00:00Z,28.4460,-96.3961,0.0,4.1,225.0,4.7,'11111222,11111222,11111222' 
TCOON,ioos:station:TCOON:057:1,2009-05-25T08:00:00Z,28.4460,-96.3961,0.0,2.9,257.0,3.4,'11111222,11111222,11111222' 
TCOON,ioos:station:TCOON:057:1,2009-05-25T09:00:00Z,28.4460,-96.3961,0.0,2.6,285.0,3.3,'11111222,11111222,11111222' 
TCOON,ioos:station:TCOON:057:1,2009-05-25T10:00:00Z,28.4460,-96.3961,0.0,2.9,295.0,3.2,'11111222,11111222,11111222' 
TCOON,ioos:station:TCOON:057:1,2009-05-25T11:00:00Z,28.4460,-96.3961,0.0,2.6,298.0,3.2,'11111222,11111222,11111222' 
TCOON,ioos:station:TCOON:057:1,2009-05-25T12:00:00Z,28.4460,-96.3961,0.0,2.0,310.0,2.3,'11111222,11111222,11111222' 
TCOON,ioos:station:TCOON:057:1,2009-05-25T13:00:00Z,28.4460,-96.3961,0.0,3.3,2.0,3.9,'11111222,11111222,11111222' 
TCOON,ioos:station:TCOON:057:1,2009-05-25T14:00:00Z,28.4460,-96.3961,0.0,2.7,335.0,3.1,'11111222,11111222,11111222' 
TCOON,ioos:station:TCOON:057:1,2009-05-25T15:00:00Z,28.4460,-96.3961,0.0,1.8,39.0,2.1,'11111222,11111222,11111222' 
TCOON,ioos:station:TCOON:057:1,2009-05-25T16:00:00Z,28.4460,-96.3961,0.0,3.1,248.0,4.0,'11111222,11111222,11111222' 
TCOON,ioos:station:TCOON:057:1,2009-05-25T17:00:00Z,28.4460,-96.3961,0.0,5.2,206.0,6.4,'11111222,11111222,11111222' 
TCOON,ioos:station:TCOON:057:1,2009-05-25T18:00:00Z,28.4460,-96.3961,0.0,2.4,128.0,2.8,'11111222,11111222,11111222' 
TCOON,ioos:station:TCOON:057:1,2009-05-25T19:00:00Z,28.4460,-96.3961,0.0,5.4,128.0,6.4,'11111222,11111222,11111222' 
TCOON,ioos:station:TCOON:057:1,2009-05-25T20:00:00Z,28.4460,-96.3961,0.0,5.9,142.0,6.7,'11111222,11111222,11111222' 
TCOON,ioos:station:TCOON:057:1,2009-05-25T21:00:00Z,28.4460,-96.3961,0.0,6.8,149.0,8.0,'11111222,11111222,11111222' 
TCOON,ioos:station:TCOON:057:1,2009-05-25T22:00:00Z,28.4460,-96.3961,0.0,7.5,155.0,8.4,'11111222,11111222,11111222' 
TCOON,ioos:station:TCOON:057:1,2009-05-25T23:00:00Z,28.4460,-96.3961,0.0,7.5,150.0,8.4,'11111222,11111222,11111222' 
TCOON,ioos:station:TCOON:057:1,2009-05-26T00:00:00Z,28.4460,-96.3961,0.0,8.1,159.0,8.9,'11111222,11111222,11111222' 
TCOON,ioos:station:TCOON:057:1,2009-05-26T01:00:00Z,28.4460,-96.3961,0.0,6.6,167.0,7.7,'11111222,11111222,11111222' 
TCOON,ioos:station:TCOON:057:1,2009-05-26T02:00:00Z,28.4460,-96.3961,0.0,7.5,155.0,8.3,'11111222,11111222,11111222' 
TCOON,ioos:station:TCOON:057:1,2009-05-26T03:00:00Z,28.4460,-96.3961,0.0,6.8,161.0,7.9,'11111222,11111222,11111222' 
TCOON,ioos:station:TCOON:057:1,2009-05-26T04:00:00Z,28.4460,-96.3961,0.0,6.7,163.0,7.3,'11111222,11111222,11111222' 
TCOON,ioos:station:TCOON:057:1,2009-05-26T05:00:00Z,28.4460,-96.3961,0.0,6.9,167.0,8.3,'11111222,11111222,11111222' 
TCOON,ioos:station:TCOON:057:1,2009-05-26T06:00:00Z,28.4460,-96.3961,0.0,6.7,165.0,7.6,'11111222,11111222,11111222' 
TCOON,ioos:station:TCOON:057:1,2009-05-26T07:00:00Z,28.4460,-96.3961,0.0,6.7,165.0,7.9,'11111222,11111222,11111222' 
TCOON,ioos:station:TCOON:057:1,2009-05-26T08:00:00Z,28.4460,-96.3961,0.0,7.3,183.0,8.4,'11111222,11111222,11111222' 
TCOON,ioos:station:TCOON:057:1,2009-05-26T09:00:00Z,28.4460,-96.3961,0.0,5.2,192.0,6.7,'11111222,11111222,11111222' 
TCOON,ioos:station:TCOON:057:1,2009-05-26T10:00:00Z,28.4460,-96.3961,0.0,4.1,202.0,5.4,'11111222,11111222,11111222' 
TCOON,ioos:station:TCOON:057:1,2009-05-26T11:00:00Z,28.4460,-96.3961,0.0,3.0,287.0,3.7,'11111222,11111222,11111222' 
TCOON,ioos:station:TCOON:057:1,2009-05-26T12:00:00Z,28.4460,-96.3961,0.0,7.4,270.0,9.6,'11111222,11111222,11111222' 
TCOON,ioos:station:TCOON:057:1,2009-05-26T13:00:00Z,28.4460,-96.3961,0.0,6.6,222.0,7.7,'11111222,11111222,11111222' 
TCOON,ioos:station:TCOON:057:1,2009-05-26T14:00:00Z,28.4460,-96.3961,0.0,3.6,94.0,4.5,'11111222,11111222,11111222' 
TCOON,ioos:station:TCOON:057:1,2009-05-26T15:00:00Z,28.4460,-96.3961,0.0,10.8,127.0,12.2,'11111222,11111222,11111222' 
TCOON,ioos:station:TCOON:057:1,2009-05-26T16:00:00Z,28.4460,-96.3961,0.0,9.0,132.0,10.2,'11111222,11111222,11111222' 
TCOON,ioos:station:TCOON:057:1,2009-05-26T17:00:00Z,28.4460,-96.3961,0.0,6.3,170.0,7.4,'11111222,11111222,11111222' 
TCOON,ioos:station:TCOON:057:1,2009-05-26T18:00:00Z,28.4460,-96.3961,0.0,4.4,218.0,5.7,'11111222,11111222,11111222' 
TCOON,ioos:station:TCOON:057:1,2009-05-26T19:00:00Z,28.4460,-96.3961,0.0,3.2,196.0,4.2,'11111222,11111222,11111222' 
TCOON,ioos:station:TCOON:057:1,2009-05-26T20:00:00Z,28.4460,-96.3961,0.0,6.8,162.0,7.3,'11111222,11111222,11111222' 
TCOON,ioos:station:TCOON:057:1,2009-05-26T21:00:00Z,28.4460,-96.3961,0.0,8.0,179.0,9.3,'11111222,11111222,11111222' 
TCOON,ioos:station:TCOON:057:1,2009-05-26T22:00:00Z,28.4460,-96.3961,0.0,6.4,178.0,8.3,'11111222,11111222,11111222' 
TCOON,ioos:station:TCOON:057:1,2009-05-26T23:00:00Z,28.4460,-96.3961,0.0,5.3,169.0,5.9,'11111222,11111222,11111222' 
TCOON,ioos:station:TCOON:057:1,2009-05-27T00:00:00Z,28.4460,-96.3961,0.0,5.5,167.0,6.1,'11111222,11111222,11111222' 
TCOON,ioos:station:TCOON:057:1,2009-05-27T01:00:00Z,28.4460,-96.3961,0.0,5.8,180.0,6.8,'11111222,11111222,11111222' 
TCOON,ioos:station:TCOON:057:1,2009-05-27T02:00:00Z,28.4460,-96.3961,0.0,5.1,171.0,5.5,'11111222,11111222,11111222' 
TCOON,ioos:station:TCOON:057:1,2009-05-27T03:00:00Z,28.4460,-96.3961,0.0,5.6,171.0,6.6,'11111222,11111222,11111222' 
TCOON,ioos:station:TCOON:057:1,2009-05-27T04:00:00Z,28.4460,-96.3961,0.0,5.0,178.0,5.5,'11111222,11111222,11111222' 
TCOON,ioos:station:TCOON:057:1,2009-05-27T05:00:00Z,28.4460,-96.3961,0.0,5.8,168.0,6.3,'11111222,11111222,11111222' 
TCOON,ioos:station:TCOON:057:1,2009-05-27T06:00:00Z,28.4460,-96.3961,0.0,4.9,177.0,5.4,'11111222,11111222,11111222' 
TCOON,ioos:station:TCOON:057:1,2009-05-27T07:00:00Z,28.4460,-96.3961,0.0,2.2,195.0,2.6,'11111222,11111222,11111222' 
TCOON,ioos:station:TCOON:057:1,2009-05-27T08:00:00Z,28.4460,-96.3961,0.0,2.3,178.0,3.2,'11111222,11111222,11111222' 
TCOON,ioos:station:TCOON:057:1,2009-05-27T09:00:00Z,28.4460,-96.3961,0.0,3.2,157.0,3.7,'11111222,11111222,11111222' 
TCOON,ioos:station:TCOON:057:1,2009-05-27T10:00:00Z,28.4460,-96.3961,0.0,3.4,141.0,3.7,'11111222,11111222,11111222' 
TCOON,ioos:station:TCOON:057:1,2009-05-27T11:00:00Z,28.4460,-96.3961,0.0,3.4,158.0,4.1,'11111222,11111222,11111222' 
TCOON,ioos:station:TCOON:057:1,2009-05-27T12:00:00Z,28.4460,-96.3961,0.0,3.2,127.0,3.6,'11111222,11111222,11111222' 
TCOON,ioos:station:TCOON:057:1,2009-05-27T13:00:00Z,28.4460,-96.3961,0.0,2.9,122.0,3.3,'11111222,11111222,11111222' 
TCOON,ioos:station:TCOON:057:1,2009-05-27T14:00:00Z,28.4460,-96.3961,0.0,3.3,154.0,4.0,'11111222,11111222,11111222' 
TCOON,ioos:station:TCOON:057:1,2009-05-27T15:00:00Z,28.4460,-96.3961,0.0,7.6,34.0,9.0,'11111222,11111222,11111222' 
TCOON,ioos:station:TCOON:057:1,2009-05-27T16:00:00Z,28.4460,-96.3961,0.0,6.5,76.0,7.4,'11111222,11111222,11111222' 
TCOON,ioos:station:TCOON:057:1,2009-05-27T17:00:00Z,28.4460,-96.3961,0.0,5.1,66.0,6.2,'11111222,11111222,11111222' 
TCOON,ioos:station:TCOON:057:1,2009-05-27T18:00:00Z,28.4460,-96.3961,0.0,4.7,68.0,5.0,'11111222,11111222,11111222' 
TCOON,ioos:station:TCOON:057:1,2009-05-27T19:00:00Z,28.4460,-96.3961,0.0,9.1,121.0,10.3,'11111222,11111222,11111222' 
TCOON,ioos:station:TCOON:057:1,2009-05-27T20:00:00Z,28.4460,-96.3961,0.0,8.1,111.0,9.5,'11111222,11111222,11111222' 
TCOON,ioos:station:TCOON:057:1,2009-05-27T21:00:00Z,28.4460,-96.3961,0.0,3.3,136.0,3.9,'11111222,11111222,11111222' 
TCOON,ioos:station:TCOON:057:1,2009-05-27T22:00:00Z,28.4460,-96.3961,0.0,3.0,2.0,3.2,'11111222,11111222,11111222' 
TCOON,ioos:station:TCOON:057:1,2009-05-27T23:00:00Z,28.4460,-96.3961,0.0,4.5,10.0,4.9,'11111222,11111222,11111222' 
TCOON,ioos:station:TCOON:057:1,2009-05-28T00:00:00Z,28.4460,-96.3961,0.0,3.6,30.0,4.0,'11111222,11111222,11111222' 
TCOON,ioos:station:TCOON:057:1,2009-05-28T01:00:00Z,28.4460,-96.3961,0.0,1.9,49.0,2.1,'11111222,11111222,11111222' 
TCOON,ioos:station:TCOON:057:1,2009-05-28T02:00:00Z,28.4460,-96.3961,0.0,1.5,21.0,1.7,'11111222,11111222,11111222' 
TCOON,ioos:station:TCOON:057:1,2009-05-28T03:00:00Z,28.4460,-96.3961,0.0,1.4,306.0,1.7,'11111222,11111222,11111222' 
TCOON,ioos:station:TCOON:057:1,2009-05-28T04:00:00Z,28.4460,-96.3961,0.0,1.8,267.0,2.2,'11111222,11111222,11111222' 
TCOON,ioos:station:TCOON:057:1,2009-05-28T05:00:00Z,28.4460,-96.3961,0.0,1.9,247.0,2.4,'11111222,11111222,11111222' 
TCOON,ioos:station:TCOON:057:1,2009-05-28T06:00:00Z,28.4460,-96.3961,0.0,2.0,250.0,2.2,'11111222,11111222,11111222' 
TCOON,ioos:station:TCOON:057:1,2009-05-28T07:00:00Z,28.4460,-96.3961,0.0,2.1,275.0,2.4,'11111222,11111222,11111222' 
TCOON,ioos:station:TCOON:057:1,2009-05-28T08:00:00Z,28.4460,-96.3961,0.0,2.3,308.0,2.8,'11111222,11111222,11111222' 
TCOON,ioos:station:TCOON:057:1,2009-05-28T09:00:00Z,28.4460,-96.3961,0.0,3.9,306.0,4.6,'11111222,11111222,11111222' 
TCOON,ioos:station:TCOON:057:1,2009-05-28T10:00:00Z,28.4460,-96.3961,0.0,4.5,259.0,5.4,'11111222,11111222,11111222' 
TCOON,ioos:station:TCOON:057:1,2009-05-28T11:00:00Z,28.4460,-96.3961,0.0,2.7,258.0,3.4,'11111222,11111222,11111222' 
TCOON,ioos:station:TCOON:057:1,2009-05-28T12:00:00Z,28.4460,-96.3961,0.0,6.7,63.0,7.4,'11111222,11111222,11111222' 
TCOON,ioos:station:TCOON:057:1,2009-05-28T13:00:00Z,28.4460,-96.3961,0.0,8.9,17.0,9.8,'11111222,11111222,11111222' 
TCOON,ioos:station:TCOON:057:1,2009-05-28T14:00:00Z,28.4460,-96.3961,0.0,4.7,348.0,5.1,'11111222,11111222,11111222' 
TCOON,ioos:station:TCOON:057:1,2009-05-28T15:00:00Z,28.4460,-96.3961,0.0,4.3,3.0,5.5,'11111222,11111222,11111222' 
TCOON,ioos:station:TCOON:057:1,2009-05-28T16:00:00Z,28.4460,-96.3961,0.0,4.6,17.0,5.1,'11111222,11111222,11111222' 
TCOON,ioos:station:TCOON:057:1,2009-05-28T17:00:00Z,28.4460,-96.3961,0.0,4.1,39.0,4.7,'11111222,11111222,11111222' 
TCOON,ioos:station:TCOON:057:1,2009-05-28T18:00:00Z,28.4460,-96.3961,0.0,4.0,57.0,4.6,'11111222,11111222,11111222' 
TCOON,ioos:station:TCOON:057:1,2009-05-28T19:00:00Z,28.4460,-96.3961,0.0,5.3,103.0,5.8,'11111222,11111222,11111222' 
TCOON,ioos:station:TCOON:057:1,2009-05-28T20:00:00Z,28.4460,-96.3961,0.0,5.4,106.0,6.1,'11111222,11111222,11111222' 
TCOON,ioos:station:TCOON:057:1,2009-05-28T21:00:00Z,28.4460,-96.3961,0.0,6.9,116.0,7.5,'11111222,11111222,11111222' 
TCOON,ioos:station:TCOON:057:1,2009-05-28T22:00:00Z,28.4460,-96.3961,0.0,6.6,115.0,7.6,'11111222,11111222,11111222' 
TCOON,ioos:station:TCOON:057:1,2009-05-28T23:00:00Z,28.4460,-96.3961,0.0,6.3,129.0,7.2,'11111222,11111222,11111222' 
TCOON,ioos:station:TCOON:057:1,2009-05-29T00:00:00Z,28.4460,-96.3961,0.0,4.8,134.0,5.3,'11111222,11111222,11111222' 
TCOON,ioos:station:TCOON:057:1,2009-05-29T01:00:00Z,28.4460,-96.3961,0.0,3.9,117.0,4.4,'11111222,11111222,11111222' 
TCOON,ioos:station:TCOON:057:1,2009-05-29T02:00:00Z,28.4460,-96.3961,0.0,3.6,117.0,4.0,'11111222,11111222,11111222' 
TCOON,ioos:station:TCOON:057:1,2009-05-29T03:00:00Z,28.4460,-96.3961,0.0,3.8,119.0,4.1,'11111222,11111222,11111222' 
TCOON,ioos:station:TCOON:057:1,2009-05-29T04:00:00Z,28.4460,-96.3961,0.0,3.0,122.0,3.5,'11111222,11111222,11111222' 
TCOON,ioos:station:TCOON:057:1,2009-05-29T05:00:00Z,28.4460,-96.3961,0.0,2.3,137.0,2.5,'11111222,11111222,11111222' 
TCOON,ioos:station:TCOON:057:1,2009-05-29T06:00:00Z,28.4460,-96.3961,0.0,1.5,313.0,1.8,'11111222,11111222,11111222' 
TCOON,ioos:station:TCOON:057:1,2009-05-29T07:00:00Z,28.4460,-96.3961,0.0,0.3,298.0,0.4,'11111222,11111222,11111222' 
TCOON,ioos:station:TCOON:057:1,2009-05-29T08:00:00Z,28.4460,-96.3961,0.0,1.3,298.0,1.5,'11111222,11111222,11111222' 
TCOON,ioos:station:TCOON:057:1,2009-05-29T09:00:00Z,28.4460,-96.3961,0.0,2.0,299.0,2.1,'11111222,11111222,11111222' 
TCOON,ioos:station:TCOON:057:1,2009-05-29T10:00:00Z,28.4460,-96.3961,0.0,2.1,291.0,2.4,'11111222,11111222,11111222' 
TCOON,ioos:station:TCOON:057:1,2009-05-29T11:00:00Z,28.4460,-96.3961,0.0,3.5,294.0,3.9,'11111222,11111222,11111222' 
TCOON,ioos:station:TCOON:057:1,2009-05-29T12:00:00Z,28.4460,-96.3961,0.0,2.6,313.0,3.0,'11111222,11111222,11111222' 
TCOON,ioos:station:TCOON:057:1,2009-05-29T13:00:00Z,28.4460,-96.3961,0.0,1.7,309.0,1.9,'11111222,11111222,11111222' 
TCOON,ioos:station:TCOON:057:1,2009-05-29T14:00:00Z,28.4460,-96.3961,0.0,4.2,2.0,4.9,'11111222,11111222,11111222' 
TCOON,ioos:station:TCOON:057:1,2009-05-29T15:00:00Z,28.4460,-96.3961,0.0,4.7,4.0,5.2,'11111222,11111222,11111222' 
TCOON,ioos:station:TCOON:057:1,2009-05-29T16:00:00Z,28.4460,-96.3961,0.0,2.7,36.0,3.1,'11111222,11111222,11111222' 
TCOON,ioos:station:TCOON:057:1,2009-05-29T17:00:00Z,28.4460,-96.3961,0.0,2.9,47.0,3.2,'11111222,11111222,11111222' 
TCOON,ioos:station:TCOON:057:1,2009-05-29T18:00:00Z,28.4460,-96.3961,0.0,4.5,97.0,5.2,'11111222,11111222,11111222' 
TCOON,ioos:station:TCOON:057:1,2009-05-29T19:00:00Z,28.4460,-96.3961,0.0,2.9,92.0,3.5,'11111222,11111222,11111222' 
TCOON,ioos:station:TCOON:057:1,2009-05-29T20:00:00Z,28.4460,-96.3961,0.0,5.1,144.0,5.8,'11111222,11111222,11111222' 
TCOON,ioos:station:TCOON:057:1,2009-05-29T21:00:00Z,28.4460,-96.3961,0.0,6.9,155.0,7.8,'11111222,11111222,11111222' 
TCOON,ioos:station:TCOON:057:1,2009-05-29T22:00:00Z,28.4460,-96.3961,0.0,7.3,167.0,8.5,'11111222,11111222,11111222' 
TCOON,ioos:station:TCOON:057:1,2009-05-29T23:00:00Z,28.4460,-96.3961,0.0,6.6,171.0,7.4,'11111222,11111222,11111222' 
TCOON,ioos:station:TCOON:057:1,2009-05-30T00:00:00Z,28.4460,-96.3961,0.0,6.3,156.0,7.2,'11111222,11111222,11111222' 
TCOON,ioos:station:TCOON:057:1,2009-05-30T01:00:00Z,28.4460,-96.3961,0.0,4.1,165.0,4.9,'11111222,11111222,11111222' 
TCOON,ioos:station:TCOON:057:1,2009-05-30T02:00:00Z,28.4460,-96.3961,0.0,5.6,183.0,6.3,'11111222,11111222,11111222' 
TCOON,ioos:station:TCOON:057:1,2009-05-30T03:00:00Z,28.4460,-96.3961,0.0,4.6,183.0,5.3,'11111222,11111222,11111222' 
TCOON,ioos:station:TCOON:057:1,2009-05-30T04:00:00Z,28.4460,-96.3961,0.0,3.3,198.0,3.7,'11111222,11111222,11111222' 
TCOON,ioos:station:TCOON:057:1,2009-05-30T05:00:00Z,28.4460,-96.3961,0.0,2.7,201.0,3.0,'11111222,11111222,11111222' 
TCOON,ioos:station:TCOON:057:1,2009-05-30T06:00:00Z,28.4460,-96.3961,0.0,2.1,194.0,2.4,'11111222,11111222,11111222' 
TCOON,ioos:station:TCOON:057:1,2009-05-30T07:00:00Z,28.4460,-96.3961,0.0,1.7,205.0,2.0,'11111222,11111222,11111222' 
TCOON,ioos:station:TCOON:057:1,2009-05-30T08:00:00Z,28.4460,-96.3961,0.0,2.2,197.0,2.4,'11111222,11111222,11111222' 